�������C�����ː����j�^�v���󋵏��
Date,Time,Cs137(Bq/L),Cs134(Bq/L),�S��(Bq/L)
2020/03/19,00:00,0.22,ND,23
2020/03/19,00:10,0.20,ND,23
2020/03/19,00:20,0.24,ND,25
2020/03/19,00:30,0.21,ND,23
2020/03/19,00:40,0.14,ND,28
2020/03/19,00:50,0.20,ND,28
2020/03/19,01:00,0.17,ND,28
2020/03/19,01:10,0.16,ND,27
2020/03/19,01:20,0.20,ND,30
2020/03/19,01:30,0.21,ND,30
2020/03/19,01:40,0.20,ND,30
2020/03/19,01:50,0.22,ND,30
2020/03/19,02:00,0.20,ND,28
2020/03/19,02:10,0.20,ND,29
2020/03/19,02:20,0.20,ND,26
2020/03/19,02:30,0.21,ND,27
2020/03/19,02:40,0.21,ND,27
2020/03/19,02:50,0.17,ND,26
2020/03/19,03:00,0.17,ND,28
2020/03/19,03:10,0.17,ND,28
2020/03/19,03:20,0.18,ND,28
2020/03/19,03:30,0.17,ND,25
2020/03/19,03:40,0.15,ND,26
2020/03/19,03:50,0.15,ND,25
2020/03/19,04:00,0.15,ND,25
2020/03/19,04:10,0.17,ND,26
2020/03/19,04:20,0.16,ND,27
2020/03/19,04:30,0.15,ND,33
2020/03/19,04:40,0.17,ND,33
2020/03/19,04:50,0.18,ND,34
2020/03/19,05:00,0.18,ND,36
2020/03/19,05:10,0.15,ND,34
2020/03/19,05:20,0.15,ND,32
2020/03/19,05:30,0.15,ND,28
2020/03/19,05:40,0.14,ND,29
2020/03/19,05:50,0.13,ND,31
2020/03/19,06:00,0.13,ND,29
2020/03/19,06:10,0.15,ND,31
2020/03/19,06:20,0.15,ND,31
2020/03/19,06:30,0.15,ND,33
2020/03/19,06:40,0.15,ND,30
2020/03/19,06:50,0.16,ND,29
2020/03/19,07:00,0.15,ND,31
2020/03/19,07:10,0.14,ND,29
2020/03/19,07:20,0.14,ND,28
2020/03/19,07:30,0.14,ND,24
2020/03/19,07:40,0.15,ND,23
2020/03/19,07:50,0.15,ND,22
2020/03/19,08:00,0.16,ND,19
2020/03/19,08:10,0.17,ND,21
2020/03/19,08:20,0.19,ND,23
2020/03/19,08:30,0.19,ND,27
2020/03/19,08:40,0.19,ND,29
2020/03/19,08:50,0.16,ND,30
2020/03/19,09:00,0.17,ND,30
2020/03/19,09:10,0.18,ND,27
2020/03/19,09:20,0.17,ND,27
2020/03/19,09:30,0.16,ND,28
2020/03/19,09:40,0.16,ND,30
2020/03/19,09:50,0.18,ND,26
2020/03/19,10:00,0.17,ND,26
2020/03/19,10:10,0.12,ND,28
2020/03/19,10:20,0.11,ND,25
2020/03/19,10:30,0.12,ND,26
2020/03/19,10:40,0.16,ND,22
2020/03/19,10:50,0.15,ND,26
2020/03/19,11:00,0.18,ND,27
2020/03/19,11:10,0.18,ND,26
2020/03/19,11:20,0.18,ND,29
2020/03/19,11:30,0.20,ND,30
2020/03/19,11:40,0.18,ND,32
2020/03/19,11:50,0.18,ND,31
2020/03/19,12:00,0.12,ND,32
2020/03/19,12:10,0.12,ND,33
2020/03/19,12:20,0.18,ND,34
2020/03/19,12:30,0.19,ND,36
2020/03/19,12:40,0.19,ND,38
2020/03/19,12:50,0.20,ND,39
2020/03/19,13:00,0.21,ND,40
2020/03/19,13:10,0.20,ND,37
2020/03/19,13:20,0.19,ND,37
2020/03/19,13:30,0.18,ND,32
2020/03/19,13:40,0.18,ND,31
2020/03/19,13:50,0.16,ND,32
2020/03/19,14:00,0.15,ND,34
2020/03/19,14:10,0.17,ND,37
2020/03/19,14:20,0.15,ND,37
2020/03/19,14:30,0.14,ND,37
2020/03/19,14:40,0.14,ND,37
2020/03/19,14:50,0.16,ND,36
2020/03/19,15:00,0.15,ND,36
2020/03/19,15:10,0.16,ND,35
2020/03/19,15:20,0.17,ND,34
2020/03/19,15:30,0.18,ND,35
2020/03/19,15:40,0.14,ND,34
2020/03/19,15:50,0.13,ND,35
2020/03/19,16:00,0.19,ND,33
2020/03/19,16:10,0.19,ND,32
2020/03/19,16:20,0.14,ND,34
2020/03/19,16:30,0.17,ND,32
2020/03/19,16:40,0.18,ND,31
2020/03/19,16:50,0.18,ND,31
2020/03/19,17:00,0.17,ND,32
2020/03/19,17:10,0.17,ND,31
2020/03/19,17:20,0.19,ND,27
2020/03/19,17:30,0.20,ND,30
2020/03/19,17:40,0.20,ND,32
2020/03/19,17:50,0.19,ND,32
2020/03/19,18:00,0.17,ND,32
2020/03/19,18:10,0.17,ND,33
2020/03/19,18:20,0.16,ND,34
2020/03/19,18:30,0.15,ND,30
2020/03/19,18:40,0.16,ND,28
2020/03/19,18:50,0.17,ND,29
2020/03/19,19:00,0.13,ND,28
2020/03/19,19:10,0.13,ND,27
2020/03/19,19:20,0.13,ND,24
2020/03/19,19:30,0.17,ND,26
2020/03/19,19:40,0.16,ND,28
2020/03/19,19:50,0.16,ND,24
2020/03/19,20:00,0.19,ND,23
2020/03/19,20:10,0.18,ND,25
2020/03/19,20:20,0.19,ND,29
2020/03/19,20:30,0.19,ND,29
2020/03/19,20:40,0.19,ND,29
2020/03/19,20:50,0.19,ND,33
2020/03/19,21:00,0.20,ND,36
2020/03/19,21:10,0.22,ND,35
2020/03/19,21:20,0.20,ND,34
2020/03/19,21:30,0.18,ND,35
2020/03/19,21:40,0.18,ND,36
2020/03/19,21:50,0.16,ND,34
2020/03/19,22:00,0.14,ND,33
2020/03/19,22:10,0.12,ND,31
2020/03/19,22:20,0.17,ND,33
2020/03/19,22:30,0.15,ND,33
2020/03/19,22:40,0.18,ND,33
2020/03/19,22:50,0.16,ND,31
2020/03/19,23:00,0.18,ND,30
2020/03/19,23:10,0.19,ND,32
2020/03/19,23:20,0.11,ND,30
2020/03/19,23:30,0.11,ND,29
2020/03/19,23:40,0.16,ND,28
2020/03/19,23:50,0.18,ND,30
